Location: *
(45.9656°N, 5.1914°E)
Time: 08:02:31
(UTC+00:00)

Daily predictions for brighter satellites

Satellite Brightness Start Highest point End
(mag) Time Altitude Azimuth Time Altitude Azimuth Time Altitude Azimuth
Cosmos 1869 Rocket 4.3 16:19:31 10° NNW 16:23:54 61° W 16:28:16 10° S
Cosmos 1980 4.4 16:20:34 10° S 16:25:39 36° ESE 16:30:47 10° NE
ATLAS 5 CENTAUR R/B 2.8 16:25:57 10° S 16:27:44 16° SE 16:29:12 10° E
RESURS DK-1 2.3 16:27:45 10° SSW 16:31:53 84° ESE 16:36:02 10° NNE
NOSS 0 Rocket 4.2 16:28:54 10° S 16:34:53 52° ESE 16:40:56 10° NE
H-2A R/B 3.2 16:32:16 10° SE 16:35:40 36° ENE 16:39:05 10° N
Cosmos 1689 Rocket 3.1 16:35:01 10° N 16:37:58 49° WNW 16:40:53 10° SSW
Feng Yun 1-1 Rocket 4.2 16:39:41 10° SSE 16:44:59 63° ENE 16:50:20 10° N
COSMOS 2428 3.0 16:39:31 10° SSW 16:45:11 73° WNW 16:50:55 10° NNE
FALCON 9 DEB 4.5 16:47:38 10° SSW 16:50:37 27° SE 16:53:03 13° E
Meteor 1-5 Rocket 4.2 16:45:11 10° N 16:50:46 88° E 16:56:09 10° S
Cosmos 1536 3.1 16:47:55 10° N 16:51:48 45° ENE 16:55:38 10° SSE
Cosmos 1862 Rocket 3.5 16:48:45 10° S 16:53:03 64° E 16:57:25 10° NNE
Genesis I 4.1 16:51:50 10° NNW 16:55:15 28° NE 16:58:25 11° ESE
ATLAS 2AS CENTAUR R/B 4.0 16:48:16 10° WSW 16:55:47 42° NW 17:03:16 10° NNE
Okean O Rocket 3.3 16:54:16 10° SSW 16:58:18 37° W 17:02:20 10° NNW
STARLINK-67 4.5 16:59:54 10° WNW 17:02:02 19° N 17:03:16 15° NNE
Cosmos 1092 Rocket 4.3 16:56:16 10° SSE 17:02:13 46° E 17:08:08 10° NNE
Cosmos 1666 3.1 16:58:43 10° N 17:02:14 37° ENE 17:05:43 10° SE
Lacrosse 5 rocket 1.7 16:58:39 10° WSW 17:02:55 61° NW 17:06:10 15° NE
Cosmos 2242 Rocket 3.8 17:00:34 10° S 17:05:00 54° E 17:09:30 10° NNE
Aureole 1 Rocket 3.0 17:07:38 10° SSE 17:10:18 31° ESE 17:11:22 24° ENE
SL-4 R/B 2.6 17:07:12 10° W 17:10:47 41° NNW 17:13:11 20° NE
CZ-4 R/B 2.2 17:08:15 10° SE 17:11:32 26° ENE 17:14:47 10° N
Cosmos 2278 Rocket 2.5 17:06:56 10° NNW 17:12:35 70° WSW 17:18:12 10° SSE
FengYun 1-2 T 4.4 17:09:12 10° SE 17:14:22 46° ENE 17:19:37 10° N
STARLINK-52 4.1 17:11:29 10° SSW 17:14:41 34° SE 17:16:09 23° E
Shenzhou-11 Module 3.0 17:13:06 10° WSW 17:15:39 36° S 17:17:18 18° SE
Okean-O 2.5 17:11:56 10° SSE 17:16:18 67° ENE 17:20:43 10° N
Cosmos 2360 Rocket 4.3 17:12:21 10° W 17:16:21 19° NW 17:20:21 10° N
STARLINK-46 4.0 17:14:24 10° W 17:16:44 27° NNW 17:17:37 22° NNE
NOSS 7 (D) 4.3 17:14:16 10° NW 17:17:16 77° SW 17:20:42 10° SSE
SMAP 3.4 17:13:48 10° S 17:18:25 68° WSW 17:23:05 10° NNW
NOAA 12 4.0 17:15:27 10° SSE 17:20:45 79° ENE 17:26:04 10° NNW
STARLINK-29 3.7 17:19:26 10° SW 17:22:48 44° SE 17:24:05 30° E
USA 215 3.7 17:17:57 15° NE 17:23:16 56° NNW 17:29:38 10° WSW
Cosmos 2369 Rocket 3.5 17:21:11 10° N 17:25:15 20° NE 17:25:28 20° NE
Cosmos 1743 3.4 17:24:23 10° N 17:27:53 32° ENE 17:31:23 10° SE
SL-16 R/B 2.7 17:22:39 10° S 17:27:55 40° ESE 17:30:56 23° NE
Cosmos 1908 Rocket 3.4 17:23:42 10° N 17:28:08 80° E 17:32:29 10° SSE
ISS -1.9 17:25:47 10° WNW 17:28:47 31° SW 17:31:48 10° SSE
Cosmos 2251 Rocket 4.1 17:26:48 10° SW 17:32:01 57° WNW 17:37:14 10° NNE
COSMO-SKYMED 1 2.7 17:29:39 19° NNE 17:32:33 49° E 17:36:45 10° S
Cosmos 614 Rocket 4.3 17:28:03 10° S 17:32:47 41° ESE 17:34:59 27° NE
NOSS 5 (C) 4.5 17:30:01 10° NW 17:33:20 83° NE 17:37:37 10° SE
Cosmos 2333 Rocket 3.8 17:31:57 10° WSW 17:37:02 32° NW 17:42:11 10° NNE
STARLINK-60 3.0 17:34:50 10° WSW 17:38:13 89° SSE 17:38:58 51° ENE
Cosmos 2237 Rocket 2.5 17:32:42 10° SW 17:38:23 69° WNW 17:43:32 13° NNE
YAOGAN 1 2.8 17:35:19 10° SE 17:39:24 44° ENE 17:43:32 10° N
Cosmos 1812 4.4 17:35:58 10° SW 17:39:30 34° WNW 17:43:04 10° N
Nadezhda 4 Rocket 4.5 17:33:21 10° SSW 17:39:38 64° WNW 17:45:55 10° N
Envisat 3.1 17:37:54 10° S 17:42:58 79° WSW 17:48:05 10° NNW
Cosmos 1428 Rocket 4.5 17:37:22 10° S 17:43:23 59° E 17:49:30 10° NNE
YAOGAN 6 2.4 17:40:17 10° SSE 17:43:47 78° ENE 17:47:24 10° N
Okean 1-7 2.9 17:39:31 10° S 17:43:49 68° E 17:46:42 21° NNE
Cosmos 292 Rocket 4.0 17:39:45 10° NNW 17:44:38 74° WSW 17:49:27 10° SSE
Cosmos 1553 Rocket 4.2 17:41:03 10° N 17:47:14 50° ENE 17:53:26 10° SSE
Cosmos 1140 Rocket 3.9 17:45:18 10° S 17:50:01 38° ESE 17:50:27 38° E
Cosmos 2219 Rocket 4.0 17:46:56 10° WSW 17:51:32 26° NW 17:56:13 10° N
Cosmos 407 Rocket 3.5 17:47:58 10° S 17:53:03 60° ESE 17:55:06 35° NE
CZ-4 R/B 4.4 17:51:48 10° SSE 17:55:57 89° SW 18:00:09 10° NNW
SKYMED 3 4.5 17:54:05 23° NNE 17:56:46 88° ESE 18:01:06 10° SSW
USA 267 4.3 17:51:51 10° SSE 17:58:01 44° SW 18:04:14 10° WNW
Cosmos 2026 Rocket 3.8 17:55:33 10° S 18:01:36 89° ESE 18:07:43 10° N
Cosmos 489 Rocket 4.5 17:57:05 10° NNW 18:03:22 58° ENE 18:08:07 18° SE
Cosmos 1943 Rocket 2.7 17:58:22 10° NNW 18:03:07 37° NE 18:03:07 37° NE
USA 229 DEB 4.3 18:00:03 10° NNW 18:06:40 38° NE 18:07:48 36° NE
USA 229 4.3 18:00:10 10° NNW 18:06:45 38° NE 18:07:52 36° NE
BREEZE-M R/B 3.2 18:05:06 10° WNW 18:09:04 48° NNW 18:09:04 48° NNW
Cosmos 1867 3.5 18:04:20 10° NNW 18:09:47 62° NE 18:10:41 54° E
CSL-04 Rocket 3.5 18:05:52 10° SSE 18:11:08 87° ENE 18:16:29 10° NNW
Cosmos 1441 Rocket 4.2 18:09:04 10° NNW 18:12:44 45° W 18:16:20 10° SSW
Cosmos 921 Rocket 3.4 18:10:03 10° NNW 18:14:17 63° WSW 18:18:34 10° S
Cosmos 2297 3.9 18:10:53 10° NNW 18:16:34 69° WSW 18:22:11 10° SSE
Cosmos 1417 Rocket 4.3 18:12:21 10° N 18:18:31 79° E 18:24:40 10° SSE
SKYMED 2 4.3 18:18:20 24° N 18:20:42 52° WNW 18:24:55 10° SSW
Cosmos 1782 Rocket 4.5 18:18:31 10° NNW 18:22:43 47° W 18:26:52 10° SSW
Cosmos 2221 Rocket 4.3 18:19:38 10° S 18:22:36 41° S 18:22:36 41° S
Sich 1 Rocket 4.0 18:20:04 10° NNW 18:24:25 61° W 18:28:44 10° S
CSL-04 Debris 4.4 18:22:09 10° S 18:27:36 69° WSW 18:33:02 10° NNW
Meteor 1-18 Rocket 4.3 18:22:59 10° SSW 18:28:43 77° WNW 18:31:59 26° N
Cosmos 1655 Rocket 3.8 18:28:40 10° S 18:34:58 80° E 18:37:01 46° NNE
SeaSat 1 4.4 18:42:03 17° N 18:42:03 17° N 18:43:19 10° NNW
Lacrosse 5 rocket 3.5 18:39:33 10° WNW 18:41:49 19° NW 18:41:49 19° NW
Meteor 2-9 Rocket 4.4 18:40:02 10° NNW 18:45:55 75° W 18:51:41 10° S
CZ-4 R/B 3.4 18:43:13 10° SSW 18:46:31 26° W 18:49:48 10° NW
Cosmos 1190 Rocket 4.5 18:41:26 10° SW 18:46:32 57° WNW 18:47:08 53° NW
SL-4 R/B 4.2 18:47:17 10° WNW 18:48:47 21° NW 18:48:47 21° NW
USA 215 4.2 19:05:18 35° N 19:05:33 35° N 19:11:19 10° WNW
Cosmos 2369 Rocket 3.5 19:04:21 10° NNW 19:07:18 32° NNW 19:07:18 32° NNW
SL-16 R/B 3.4 19:06:52 10° WSW 19:12:05 36° NW 19:12:51 35° NW
Cosmos 2344 4.3 19:30:30 10° NW 19:40:14 85° NE 19:40:45 82° E
Cosmos 1943 Rocket 4.2 19:42:14 10° NW 19:44:42 24° WNW 19:44:42 24° WNW
